> Flugplatz > 
Stacks Image 3
Aktuelle METAR Daten (Memmingen, Friedrichshafen, Laupheim):
2017/01/21 07:20 EDJA 211920Z 00000KT 2300 R24/P2000N BR NSC M11/M12 Q1026
2017/01/21 06:50 EDNY 211850Z AUTO VRB02KT 4200 BR OVC004 M07/M08 Q1028
2017/01/21 06:20 ETHL 211820Z 07001KT 0100 FZFG VV000 M10/M12 Q1027 RED
Sicherheits- und Servicehinweise:

Bitte achten Sie beim Anflug auf mögliche Fall­schirm­springer auf der Nordseite des Platzes, kontaktieren Sie zur Sicherheit den Flugleiter auf Leutkirch INFO 122,875.

Zollabfertigung:
für Ein- und Ausflug bei Voranmeldung mindestens 3 Stunden, nur Personenverkehr – keine Warenabfertigung.

Günstig Tanken:
Avgas 100 II · Super 95 · Jet A1 · Diesel

Aktuelles:

Winterflugbetrieb vom 01.11.16 – 14.03.17:
Der Flugplatz ist bei Schneefall PPR 2 HR, die Flugleitung ist täglich mindestens von 10:00 bis 15:00 Uhr besetzt.
Am 25.12.16 und 01.01.17 ist der Flugplatz geschlossen.

Weitere Informationen finden Sie in unserem Newsbereich.

Nutzen Sie unsere Online-Anmeldung zur Zoll- und Passkontrolle.